Probability
2 2 1 0 0 0 0 0 0 0 0 0 0 0 0 0 0 0 1 0 0 0 0 0 1 3 2 1 0 0 0 0 0 0 0 0 0 0 0 0 0 0 0
2 2 1 0 0 0 0 0 0 0 0 0 0 0 0 0 0 0 1 1 0 0 0 0 1 2 2 1 0 0 0 0 0 0 0 0 0 0 0 0 0 0 0
2 1 0 0 0 0 0 0 0 0 0 0 0 0 0 0 0 0 0 1 1 1 1 1 1 1 1 0 0 0 0 0 0 0 0 0 0 0 0 0 0 0 0
1 0 0 0 0 0 0 0 0 0 0 0 0 0 0 0 0 0 0 0 1 1 2 2 1 0 0 0 0 0 0 0 0 0 0 0 0 0 0 0 0 0 0
0 0 0 0 0 0 0 0 0 0 0 0 0 0 0 0 0 0 0 0 0 1 1 1 1 0 0 0 0 0 0 0 0 0 0 0 0 0 0 0 0 0 0
0 0 0 0 0 0 0 0 0 0 0 0 0 0 0 0 0 0 0 0 0 0 0 0 0 0 0 0 0 1 0 0 0 0 0 0 0 0 0 0 0 0 0
0 0 0 0 0 0 0 0 0 0 0 0 0 0 0 0 0 0 0 0 0 0 0 0 0 0 0 0 0 0 0 0 0 0 0 0 1 1 0 0 0 0 0
0 0 0 0 0 0 0 0 0 0 0 0 0 0 0 0 0 0 0 0 0 0 0 0 0 0 0 0 0 0 0 0 0 0 0 1 2 2 1 0 0 0 0
0 0 0 0 0 0 0 0 0 0 0 0 0 0 0 0 0 0 0 0 0 0 0 0 0 0 0 0 0 0 0 0 0 0 0 2 4 5 3 1 0 0 0
0 0 0 0 0 0 0 0 0 0 0 0 0 0 0 0 0 0 0 0 0 0 0 0 0 0 0 0 0 0 0 0 0 0 1 3 6 6 4 2 1 0 0
0 0 0 0 0 0 0 0 0 0 0 0 0 0 0 0 0 0 0 0 0 0 0 0 0 0 0 0 0 0 0 0 0 1 2 5 5 5 4 3 1 0 0
0 0 0 0 0 0 0 0 0 0 0 0 0 0 0 0 0 0 0 0 0 0 0 0 0 0 0 0 0 0 0 0 0 2 5 6 5 4 4 3 1 0 0
0 0 0 0 0 0 0 0 0 0 0 0 0 0 0 0 0 0 0 0 0 0 0 0 0 0 0 0 0 0 0 0 2 4 6 7 5 3 2 2 1 0 0
0 0 0 0 0 0 0 0 0 0 0 0 0 0 0 0 0 0 0 0 0 0 0 0 0 0 0 0 0 0 0 1 3 4 5 5 3 1 1 1 1 0 0
0 0 0 0 0 0 0 0 0 0 0 0 0 0 0 0 0 0 0 0 0 0 0 0 0 0 0 0 0 0 0 0 2 3 3 2 2 1 1 0 0 0 0
0 0 0 0 0 0 0 0 0 0 0 0 0 0 0 0 0 0 0 0 0 0 0 0 0 0 0 0 0 0 0 0 1 1 1 1 1 2 2 1 0 0 0
0 0 0 0 0 0 0 0 0 0 0 0 0 0 0 0 0 0 0 0 0 0 0 0 0 0 0 0 0 0 0 0 0 0 1 1 1 1 1 1 0 1 2
0 0 0 0 0 0 0 0 0 0 0 0 0 0 0 0 0 0 0 0 0 0 0 0 0 0 0 0 0 0 0 0 0 0 0 1 1 1 0 0 1 2 3
0 0 0 0 0 0 0 0 0 0 0 0 0 0 0 0 0 0 0 0 0 0 0 0 0 0 0 0 0 0 0 0 0 0 0 0 0 0 0 0 1 1 2
0 0 0 0 0 0 0 0 0 0 0 0 0 0 0 0 0 0 0 0 0 0 0 0 0 0 0 0 0 0 0 0 0 0 0 0 0 0 0 1 1 1 1
1 0 0 0 0 0 0 0 0 0 0 0 0 0 0 0 0 0 0 0 0 0 0 0 0 0 0 0 0 0 0 0 0 0 0 0 0 0 0 1 1 2 2
2 1 0 0 0 0 0 0 0 0 0 0 0 0 0 0 0 0 0 0 0 0 0 0 0 0 0 0 0 0 0 0 0 0 0 0 0 0 1 2 2 3 3
2 1 0 0 0 0 0 0 0 0 0 0 0 0 0 0 0 0 0 0 0 0 0 0 0 0 0 0 0 0 0 0 0 0 0 0 0 0 1 2 2 2 2
1 0 0 0 0 0 0 0 0 0 0 0 1 0 0 0 0 0 0 0 0 0 0 0 0 0 0 0 0 0 0 0 0 0 0 0 0 0 0 1 1 1 1
0 0 0 0 0 0 0 0 0 0 0 0 0 0 0 0 0 0 0 0 0 0 0 0 0 0 0 0 0 0 0 0 0 0 0 0 0 0 0 0 0 1 1
0 0 0 0 0 0 0 0 0 0 0 0 0 0 0 0 0 0 0 0 0 0 0 0 0 0 0 0 0 0 0 0 0 0 0 0 0 0 0 0 1 2 4
Wind_Speed
9 11 11 11 10 10 9 9 9 9 9 9 8 8 8 8 8 8 8 7 7 8 7 7 7 7 7 7 7 7 7 7 6 6 5 4 4 5 6 8 8 5 9
12 12 11 11 10 10 10 9 9 9 9 8 8 8 7 7 7 7 7 6 6 6 6 6 7 7 6 7 7 7 6 6 6 6 5 3 1 4 5 7 8 5 8
13 13 11 11 11 10 10 9 9 9 9 8 7 7 7 6 6 6 6 6 6 6 6 5 5 6 5 5 6 6 6 6 7 7 7 3 2 5 5 7 7 8 8
13 12 12 11 11 10 10 10 10 9 9 8 7 7 6 6 5 5 5 5 6 6 5 5 4 5 5 5 5 5 5 6 7 9 4 1 3 6 6 6 7 7 7
14 13 11 11 11 10 10 10 10 9 9 8 8 7 6 6 6 6 5 5 5 5 5 4 4 4 4 4 4 4 5 6 8 8 4 3 4 6 6 6 6 6 7
14 13 11 11 11 10 10 10 9 9 8 8 8 7 7 6 6 5 5 5 5 6 5 4 4 4 4 4 4 4 5 7 9 4 2 2 4 5 6 5 5 6 7
13 13 12 12 11 10 10 9 9 8 8 8 7 6 6 5 5 4 5 5 5 6 6 5 5 4 4 5 4 5 6 8 6 4 1 2 5 6 5 5 5 5 6
12 12 12 12 12 11 10 9 8 7 6 6 5 4 3 3 2 2 3 4 5 6 6 5 5 5 5 5 5 5 6 7 7 6 2 3 7 7 5 4 4 5 5
8 11 11 10 10 11 10 9 7 5 4 3 2 1 2 3 3 2 0 2 4 5 5 5 5 5 5 5 5 6 6 6 5 5 3 3 7 6 5 4 4 4 4
6 7 7 8 9 9 8 9 7 6 4 3 3 4 6 7 7 7 3 1 2 3 4 5 5 5 6 6 7 7 7 6 6 5 1 5 8 6 5 4 3 3 4
6 5 5 6 6 7 8 9 9 8 6 5 6 8 7 4 2 5 4 4 2 4 5 6 7 7 7 8 10 10 7 4 5 2 2 8 8 6 4 4 3 3 3
5 5 5 5 4 4 3 6 3 4 4 3 1 1 2 2 2 2 3 4 5 7 7 8 9 9 7 5 7 9 4 6 4 1 4 9 8 6 5 4 3 3 3
5 4 4 4 4 4 3 2 1 1 1 1 2 1 1 2 2 1 0 2 4 5 3 3 6 4 3 2 2 3 4 2 0 1 5 8 8 6 4 4 4 4 4
6 5 4 3 4 5 5 1 1 1 1 2 3 4 2 2 2 2 2 2 2 1 1 2 3 3 3 3 2 2 2 1 0 2 4 8 7 6 5 4 4 4 5
6 5 5 3 4 5 3 1 2 3 2 3 2 2 2 2 2 3 2 1 2 2 2 2 3 3 3 4 4 3 3 2 0 1 3 7 7 6 5 5 5 5 5
6 6 5 4 3 3 2 2 3 2 2 2 2 3 3 2 2 2 3 2 2 2 2 3 3 3 2 2 3 3 3 2 1 1 3 5 7 6 6 6 6 5 5
7 7 5 4 3 4 5 4 3 2 4 3 2 4 4 3 3 3 3 3 3 3 3 3 4 3 3 2 2 3 2 2 2 1 1 3 4 6 6 6 6 5 6
6 8 7 4 4 5 4 3 3 4 4 3 3 4 6 6 5 3 3 3 3 3 3 3 2 3 3 3 2 2 2 2 1 1 1 2 3 3 5 6 6 6 6
6 7 7 5 4 5 4 2 2 3 2 2 3 4 5 6 6 4 2 2 4 3 3 4 3 3 3 3 3 2 1 1 1 1 0 1 2 3 4 5 7 6 6
5 5 7 7 5 5 2 1 3 3 2 2 3 4 3 3 4 4 3 4 4 3 3 3 3 3 2 2 3 2 1 0 0 1 1 1 2 3 4 4 4 4 6
5 4 5 7 5 4 2 1 2 2 1 2 2 3 2 2 4 3 3 3 3 3 3 4 3 4 3 2 2 2 2 0 1 1 1 1 1 2 2 4 3 3 3
5 4 5 6 5 5 2 1 2 2 1 2 1 1 1 3 4 5 4 3 2 2 3 4 3 3 3 3 1 2 2 2 2 1 1 1 1 1 2 3 2 3 3
5 3 3 5 6 5 4 2 2 2 1 0 0 1 1 1 2 3 4 3 3 3 2 3 3 4 3 3 2 1 1 1 1 2 2 1 1 1 1 1 2 2 3
5 3 3 5 5 5 4 3 1 1 0 0 0 1 1 1 1 1 2 3 3 2 3 3 3 3 3 3 3 2 1 0 0 1 2 2 2 1 1 1 2 2 3
4 3 3 5 5 5 4 4 1 0 0 1 1 0 1 1 1 1 1 2 2 2 2 3 3 3 2 2 2 2 2 2 1 1 0 1 2 1 1 1 2 2 3
5 4 3 4 4 4 3 3 3 2 1 1 1 1 1 1 1 1 0 1 2 1 2 2 2 2 1 1 1 2 1 2 1 1 0 0 1 1 1 1 1 2 3
Wind_Direction
103 102 101 97 94 92 91 88 83 79 76 73 69 65 61 59 56 52 47 45 42 40 39 38 35 33 31 30 30 28 27 26 21 17 18 23 41 45 39 29 25 31 37
108 104 99 97 93 91 89 88 83 78 75 72 70 66 61 55 52 47 44 42 39 36 35 35 33 29 28 24 22 20 16 13 0 349 340 336 38 65 48 35 35 35 36
110 110 100 94 92 89 87 84 80 75 72 70 67 64 59 53 48 43 39 34 31 28 28 28 26 20 20 20 14 9 6 356 341 330 314 289 116 84 59 42 38 37 35
104 101 96 94 90 86 84 81 79 76 72 69 65 59 55 49 41 34 29 24 20 18 16 18 16 11 7 8 4 358 353 341 328 321 310 71 81 83 64 47 37 36 36
99 97 96 94 89 86 83 80 78 74 71 67 62 57 53 46 39 34 27 19 10 4 2 1 359 357 350 350 351 350 341 328 322 308 317 58 83 84 66 51 40 37 38
105 104 102 98 93 88 83 80 79 75 69 65 61 55 50 44 38 31 21 12 3 356 350 346 337 330 327 327 331 332 328 321 313 302 336 67 97 88 72 56 45 44 43
111 113 113 107 100 94 88 83 78 74 69 64 57 49 41 36 32 24 15 7 360 354 351 345 334 319 310 310 314 316 314 312 291 290 315 94 105 98 81 62 53 54 51
115 118 122 122 117 108 100 91 83 76 71 65 53 38 23 11 5 3 8 8 2 355 349 338 329 314 298 297 298 301 301 300 311 322 323 114 114 104 90 72 62 59 60
119 128 136 142 136 126 119 111 103 95 88 83 67 347 300 280 267 263 310 18 2 351 343 336 323 313 300 287 279 277 280 288 293 282 289 113 118 109 98 87 74 69 68
113 118 133 144 144 148 143 141 145 151 164 187 218 251 264 265 248 238 219 136 335 325 320 316 310 298 289 276 265 260 263 277 262 262 188 121 119 113 105 97 90 89 87
117 127 130 130 136 152 156 155 172 181 197 211 221 240 261 267 230 215 149 155 240 276 279 281 282 281 276 263 250 247 253 248 252 233 116 122 120 118 117 112 107 110 103
142 136 129 126 133 125 107 142 179 173 180 205 172 213 279 341 328 346 134 202 236 255 263 260 269 273 264 247 236 227 240 240 251 205 128 128 123 120 120 122 121 129 125
119 103 105 116 120 116 105 102 90 115 148 115 44 17 351 349 335 357 175 203 237 249 266 268 253 254 249 246 233 214 235 249 246 99 119 128 129 128 132 136 135 145 140
106 96 71 57 94 82 72 61 181 88 53 61 29 13 25 5 333 5 338 27 331 334 348 321 298 302 320 305 276 269 268 260 131 121 134 138 140 146 154 154 152 154 151
122 120 95 59 59 83 95 277 72 80 36 67 53 345 24 9 352 5 337 11 350 356 349 332 315 335 336 325 328 325 333 337 38 107 131 150 155 163 167 161 159 159 157
139 124 116 102 86 95 111 62 62 61 129 63 54 344 20 27 1 11 359 1 9 349 343 331 327 340 320 316 322 323 322 327 353 143 151 161 169 170 171 169 166 162 165
132 118 109 103 89 69 59 39 60 30 51 47 47 2 18 30 11 30 9 357 356 344 347 349 341 335 322 321 315 314 320 323 324 291 159 153 160 173 174 171 167 165 166
130 122 121 107 94 82 73 48 34 52 43 30 40 24 13 15 12 32 14 347 345 352 355 337 350 342 336 336 331 321 333 328 312 283 214 152 153 158 167 171 169 171 166
118 121 127 113 101 93 94 121 67 66 65 34 48 49 18 360 358 22 359 332 352 2 357 344 8 343 332 334 307 282 298 307 321 302 227 143 141 143 148 166 170 174 171
115 123 120 113 106 102 89 91 88 69 38 56 55 59 25 346 359 4 342 9 7 359 351 353 357 338 321 308 317 344 331 327 358 -0 16 77 140 144 142 149 156 175 175
128 133 129 129 125 113 98 75 78 72 35 69 66 73 350 352 358 355 360 360 0 353 357 359 352 341 330 334 348 339 328 318 130 75 56 36 92 116 124 142 156 156 163
143 166 147 130 127 122 115 99 117 98 45 82 41 123 35 27 12 0 7 352 2 357 9 354 352 350 337 350 359 348 349 359 6 46 73 84 88 108 114 137 141 141 142
142 167 139 126 126 119 123 83 60 63 341 54 213 102 69 50 32 2 348 347 348 9 16 351 1 357 339 333 15 38 15 343 332 355 31 54 81 89 111 108 139 143 139
141 146 134 123 120 120 121 110 117 127 3 29 35 120 183 164 115 31 334 342 346 6 6 358 22 348 351 341 341 351 328 240 9 352 357 16 47 72 69 97 122 125 122
115 109 93 110 117 123 129 137 166 238 317 19 19 52 307 138 140 157 355 329 333 357 4 9 13 354 353 353 339 334 344 350 5 107 8 6 16 13 74 81 102 107 115
93 92 85 101 114 126 144 161 184 205 233 246 259 287 297 252 207 149 135 314 327 2 9 3 350 335 338 337 334 342 360 356 348 21 60 57 45 330 41 69 104 110 107